Showing default

ORBCOMM FM 111, 40089

Orbit data source: Space-Track

ORBCOMM FM 111, 40089 is a payload satellite owned by Orbcomm (US) in LEO that was launched on Mon, 14 Jul 2014 UTC via an FALCON 9 launch vehicle from the Air Force Eastern Test Range (AFETR). Payload-class satellites include a variety of spacecraft equipped with specific instruments for various scientific and technological missions. These include communications satellites like Starlink; space stations such as the ISS; scientific satellites like the Hubble; Earth observation satellites from companies like Planet Labs, Umbra, and HawkEye 360; GPS; miniature CubeSats for education and research; and military/defense satellites.

Loading next visibility...
Identifier
40089, 2014-040D
Orbit
LEO
Country
Flag of USUS / ORB
Related business
Manufacturer
SNC Louisville
Mission
Non-operational Commercial Communications
Bus & Motor
SN-100A, Unknown motor
Mass
172 kg wet, 158 kg dry
Launch date (UTC)
2014-07-14 (12 years ago)
Launch vehicle
FALCON 9
Launch site
Air Force Eastern Test Range (AFETR)
Object type
Payload
Rocket body
Debris
Shape & HBR
Box + 1 Pan + 1 Ant, 5.3 m
Radar Cross Section
2.222 m², Medium (>0.1 m² and < 1m²)

Expand to show TLE details & history
Last TLE update: 16 hours ago

TLE from 16 hours ago
0 ORBCOMM FM 111
1 40089U 14040D   26262.78027383  .00001189  00000-0  14707-3 0  9997
2 40089  47.0012 294.1954 0029081 240.8690 118.9296 14.89187307658676
Epoch: 2026-09-19T18:43Z
TLE epoch observation values (Epoch: 2026-09-19T18:43:35.658Z)
Latitude
-0.00005°
Longitude
14.61288°
Altitude
610.553 km
Speed
7.55 km/s
True Right ascension
19h 36m 46s
True Declination
0° 00' 00"
Sunlit
Object was in full shadow at epoch
Visualization orbit readout
Latitude
Unknown
Longitude
Unknown
Altitude
Unknown
Speed
Unknown
Apparent Right ascension
Unknown
Apparent Declination
Unknown
Sunlit
N/A
Visualization observer readout
Local Sidereal Time
03:56:36
Azimuth
Unknown
Elevation
Unknown
Doppler factor
Unknown
Orbital elements
Apogee altitude
622.023 km
Perigee altitude
581.427 km
Semi-major axis
6,979.862 km
Eccentricity
0.00291
Inclination
47.0012°
RAAN
294.1954°
Arg. of periapsis
240.869°
True anomaly
119.22075°
Mean anomaly
118.9296°
Eccentric anomaly
119.07522°
Mean motion
3.72197 °/min
Orbital period
96.72 mins
BSTAR
0.00014707
Loading maneuver chart data...
Computing Atmospheric mass density...
Loading historical data...
Loading historical data...
Loading historical data...
Loading historical data...
Loading historical data...
Loading historical data...
Loading historical data...

Documentation

Showing up to 5 results
|